Weather History for Lee's Summit, MO

Change the Weather History Date:

Friday, November 16, 2012

  Actual Average (KMKC) Record (KMKC)
Temperature  
Mean Temperature 46 °F -  
Max Temperature 57 °F 53 °F 71 °F (2001)
Min Temperature 36 °F 36 °F 18 °F (2014)
Degree Days  
Heating Degree Days 18    
Moisture  
Dew Point 34 °F    
Average Humidity 65    
Maximum Humidity 86    
Minimum Humidity 41    
Precipitation  
Precipitation 0.00 in - - ()
Sea Level Pressure  
Sea Level Pressure 30.41 in    
Wind  
Wind Speed 4 mph (ENE)    
Max Wind Speed 8 mph    
Max Gust Speed -    
Visibility 10 miles    
Events      
Averages and records for this station are not official NWS values.
T = Trace of Precipitation, MM = Missing Value Source: NWS Daily Summary

Daily Weather History Graph

Daily Weather History Graph

Search for Another Location

Airport:

Trip Planner

Search our weather history database for the weather conditions in past years. The results will help you decide how hot, cold, wet, or windy it might be!

Date:

Astronomy

Nov. 16, 2012 Rise Set
Actual Time 7:01 AM CST 5:02 PM CST
Civil Twilight 6:33 AM CST 5:31 PM CST
Nautical Twilight 6:01 AM CST 6:03 PM CST
Astronomical Twilight 5:29 AM CST 6:34 PM CST
Moon 9:56 AM CST (11/16) 8:03 PM CST (11/16)
Length of Visible Light 10h 57m
Length of Day
10h 00m
Waxing Crescent, 12% of the Moon is Illuminated
Nov 16
Waxing Crescent
Nov 20
First Quarter
Nov 28
Full
Dec 6
Last Quarter
Dec 13
New

Hourly Weather History & Observations

Time (CST) Temp. Windchill Dew Point Humidity Pressure Visibility Wind Dir Wind Speed Gust Speed Precip Events Conditions
12:53 AM 41.0 °F 39.0 °F 33.1 °F 73% 30.40 in 10.0 mi WNW 3.5 mph - N/A   Clear
1:53 AM 39.9 °F 37.8 °F 32.0 °F 73% 30.41 in 10.0 mi NW 3.5 mph - N/A   Clear
2:53 AM 41.0 °F 39.0 °F 32.0 °F 70% 30.41 in 10.0 mi North 3.5 mph - N/A   Clear
3:53 AM 39.9 °F 37.8 °F 33.1 °F 77% 30.41 in 10.0 mi North 3.5 mph - N/A   Clear
4:53 AM 37.0 °F 34.5 °F 33.1 °F 86% 30.42 in 10.0 mi North 3.5 mph - N/A   Clear
5:53 AM 37.9 °F 33.5 °F 33.1 °F 83% 30.43 in 10.0 mi NNE 5.8 mph - N/A   Clear
6:53 AM 36.0 °F 32.1 °F 32.0 °F 86% 30.43 in 10.0 mi NE 4.6 mph - N/A   Clear
7:53 AM 37.9 °F 35.5 °F 33.1 °F 83% 30.45 in 10.0 mi ENE 3.5 mph - N/A   Clear
8:53 AM 41.0 °F 38.0 °F 35.1 °F 79% 30.46 in 10.0 mi ENE 4.6 mph - N/A   Clear
9:53 AM 46.0 °F 44.8 °F 36.0 °F 68% 30.47 in 10.0 mi ENE 3.5 mph - N/A   Clear
10:53 AM 48.9 °F - 36.0 °F 61% 30.48 in 10.0 mi Calm Calm - N/A   Clear
12:53 PM 57.0 °F - 36.0 °F 45% 30.43 in 10.0 mi Calm Calm - N/A   Clear
1:53 PM 57.9 °F - 35.1 °F 42% 30.40 in 10.0 mi East 8.1 mph - N/A   Clear
2:53 PM 57.9 °F - 35.1 °F 42% 30.39 in 10.0 mi ESE 6.9 mph - N/A   Clear
3:53 PM 57.9 °F - 34.0 °F 41% 30.39 in 10.0 mi SE 6.9 mph - N/A   Clear
4:53 PM 55.0 °F - 35.1 °F 47% 30.39 in 10.0 mi SE 3.5 mph - N/A   Clear
5:53 PM 53.1 °F - 35.1 °F 50% 30.38 in 10.0 mi SE 4.6 mph - N/A   Clear
6:53 PM 50.0 °F - 35.1 °F 57% 30.39 in 10.0 mi ESE 4.6 mph - N/A   Clear
7:53 PM 48.9 °F - 36.0 °F 61% 30.40 in 10.0 mi SE 3.5 mph - N/A   Clear
8:53 PM 48.9 °F - 35.1 °F 59% 30.40 in 10.0 mi SE 4.6 mph - N/A   Clear
9:53 PM 45.0 °F - 35.1 °F 68% 30.40 in 10.0 mi Calm Calm - N/A   Clear
10:53 PM 44.1 °F - 34.0 °F 68% 30.40 in 10.0 mi Calm Calm - N/A   Clear
11:53 PM 45.0 °F 41.8 °F 34.0 °F 65% 30.40 in 10.0 mi SE 5.8 mph - N/A   Clear